Regional Weather Roundup
Issued by NWS Cleveland, OH

Home | Current Version | Previous Version | Text Only | Print | Product List | Glossary Off
Versions: 1 2 3 4 5 6 7 8 9 10 11 12 13 14 15 16 17 18 19 20 21 22 23 24 25 26 27 28 29 30 31 32 33 34 35 36 37 38 39 40 41 42 43 44 45 46 47 48 49 50

103
ASUS41 KCLE 311710
RWRCLE
OHIO REGIONAL WEATHER ROUNDUP
NATIONAL WEATHER SERVICE WILMINGTON, OH
100 PM EDT TUE MAY 31 2016

NOTE: "FAIR" INDICATES FEW OR NO CLOUDS BELOW 12,000 FEET WITH NO
SIGNIFICANT WEATHER AND/OR OBSTRUCTIONS TO VISIBILITY.

OHZ001>008-015>018-024>027-034-035-043-044-311800-
   NORTHWEST OHIO

CITY           SKY/WX    TMP DP  RH WIND       PRES   REMARKS
DEFIANCE       FAIR      83  50  31 NE7       30.03F
FINDLAY        FAIR      82  51  34 NE8       30.02S
TOLEDO EXPRESS FAIR      81  54  39 NE9       30.03S
TOLEDO EXEC    FAIR      81  55  40 E10       30.04F
LIMA           FAIR      82  52  35 NE7       30.02F
$$

OHZ009>014-019>023-028>033-038-089-311800-
   NORTHEAST OHIO

CITY           SKY/WX    TMP DP  RH WIND       PRES   REMARKS
CLE-HOPKINS    PTSUNNY   77  59  53 N14       30.05S
CLE-LAKEFRONT  FAIR      72  64  76 N9        30.03S
CUY CO. ARPT   PTSUNNY   81  61  50 NE14      30.05R
LORAIN-ELYRIA  FAIR      78  58  49 NE13      30.04S
ASHTABULA      PTSUNNY   78  57  48 NE6       30.05S
AKRON-CANTON   FAIR      83  52  34 VRB3      30.02F
WOOSTER        FAIR      83  56  39 VRB6G16   30.03F
MANSFIELD      FAIR      81  56  42 N6        30.04S
YOUNGSTOWN     CLOUDY    82  57  42 NE7       30.03F
$$

OHZ042-051>053-060>062-070>072-077>081-311800-
  SOUTHWEST OHIO

CITY           SKY/WX    TMP DP  RH WIND       PRES   REMARKS
CINC-COVINGTON CLOUDY    84  60  44 CALM      30.01
CINC-LUNKEN    FAIR      84  63  49 S6        29.99F
HAMILTON       FAIR      87  60  40 CALM      30.00F
DAYTON         PTSUNNY   85  57  38 E6        30.02F
WRIGHT-PAT AFB SUNNY     86  58  38 VRB2      30.00F
DAYTON GENERAL FAIR      85  54  34 CALM      30.00F
WILMINGTON     FAIR      84  56  38 S6        30.01F
$$

OHZ036-037-039>041-045>050-054>059-063>069-073>076-082>088-311800-
  CENTRAL AND SOUTHEAST OHIO

CITY           SKY/WX    TMP DP  RH WIND       PRES   REMARKS
COLUMBUS       FAIR      84  56  38 NW7       30.00F
OSU AIRPORT    FAIR      85  59  41 W6        30.00F
BOLTON FIELD   MOSUNNY  N/A N/A N/A S6        30.01F
RICKENBACK AFB FAIR      84  60  44 SW3       30.00F
NEWARK         FAIR      88  55  32 W6        30.00F
MARION         FAIR      84  52  33 VRB3      30.02F
LANCASTER      FAIR      85  56  37 CALM      30.01F
ZANESVILLE     FAIR      86  59  39 VRB7      30.01F
NEW PHILLY     FAIR      85  55  35 NW5       30.01F
$$




USA.gov is the U.S. government's official web portal to all federal, state and local government web resources and services.